Regional Weather Roundup
Issued by NWS Portland, ME

Current Version | Previous Version | Text Only | Print | Product List | Glossary Off
Versions: 1 2 3 4 5 6 7 8 9 10 11 12 13 14 15 16 17 18 19 20 21 22 23 24 25 26 27 28 29 30 31 32 33 34 35 36 37 38 39 40 41 42 43 44 45 46 47 48 49 50
000 ASUS41 KGYX 221805 RWRGYX WEATHER ROUNDUP FOR MAINE AND NEW HAMPSHIRE NATIONAL WEATHER SERVICE GRAY ME 200 PM EDT MON OCT 22 2018 MEZ002-005-006-010-012-015-018-020-021-024-026-027-029-221900- MAINE CITY SKY/WX TMP DP RH WIND PRES REMARKS PORTLAND FAIR 48 20 32 W13 30.11F 6HR MIN TEMP: 32; 6HR MAX TEMP: 48; SANFORD FAIR 48 21 34 W14G20 30.12S BAR HARBOR FAIR 43 19 38 NW10 30.07S WISCASSET FAIR 46 21 37 VRB7 30.11F 6HR MIN TEMP: 36; 6HR MAX TEMP: 46; ROCKLAND FAIR 44 19 36 W15G22 30.09S FRYEBURG FAIR 46 18 32 W6 30.10S 6HR MIN TEMP: 35; 6HR MAX TEMP: 47; LEWISTONAUBURN FAIR 44 19 36 W9 30.09F AUGUSTA FAIR 43 17 35 W12G21 30.09S 6HR MIN TEMP: 35; 6HR MAX TEMP: 44; WATERVILLE FAIR 43 19 38 W8 30.06F BANGOR PTSUNNY 43 19 38 W12G20 30.07S 6HR MIN TEMP: 32; 6HR MAX TEMP: 44; GREENVILLE N/A 33 18 53 NW10G20 29.99S 6HR MIN TEMP: 28; 6HR MAX TEMP: 33; MILLINOCKET PTSUNNY 38 15 39 NW14G22 30.03S 6HR MIN TEMP: 33; 6HR MAX TEMP: 40; HOULTON PTSUNNY 38 17 42 W13G18 29.97S 6HR MIN TEMP: 29; 6HR MAX TEMP: 39; PRESQUE ISLE CLOUDY 36 15 42 W15G22 29.97S 6HR MIN TEMP: 29; 6HR MAX TEMP: 37; FRENCHVILLE CLOUDY 36 15 42 W18G25 29.92S 6HR MIN TEMP: 28; 6HR MAX TEMP: 37; CARIBOU CLOUDY 37 15 40 W10G22 29.94R 6HR MIN TEMP: 27; 6HR MAX TEMP: 38; $$ NHZ002-005-008-009-011-012-014-221900- NEW HAMPSHIRE CITY SKY/WX TMP DP RH WIND PRES REMARKS PORTSMOUTH MOSUNNY 50 21 32 W10G21 30.11F ROCHESTER FAIR 48 23 37 W9G17 30.12S 6HR MIN TEMP: 31; 6HR MAX TEMP: 49; NASHUA FAIR 48 24 39 W8G23 30.14S MANCHESTER PTSUNNY 49 21 33 NW12 30.12F 6HR MIN TEMP: 29; 6HR MAX TEMP: 50; CONCORD FAIR 49 23 36 NW16G28 30.13S 6HR MIN TEMP: 26; 6HR MAX TEMP: 49; LACONIA PTSUNNY 44 21 40 W10 30.11F PLYMOUTH CLOUDY 44 22 40 W7 30.11S BERLIN PTSUNNY 39 18 42 NW8G20 30.08S 6HR MIN TEMP: 31; 6HR MAX TEMP: 42; WHITEFIELD FAIR 39 20 46 W12G17 30.09F 6HR MIN TEMP: 31; 6HR MAX TEMP: 41; JAFFREY CLOUDY 45 26 47 CALM 30.12F 6HR MIN TEMP: 30; 6HR MAX TEMP: 45; KEENE CLOUDY 48 25 40 W8 30.13F LEBANON CLOUDY 46 23 40 W7 30.10F 6HR MIN TEMP: 24; 6HR MAX TEMP: 47; MT WASHINGTON NOT AVBL $$ VTZ005-007-008-221900- VERMONT CITY SKY/WX TMP DP RH WIND PRES REMARKS ST JOHNSBURY N/A 40 20 44 MISG 30.09F MONTPELIER CLOUDY 39 24 55 CALM 30.13F BURLINGTON CLOUDY 42 23 46 S6 30.12F $$ MAZ007-012-024-CTZ003-RIZ002-NYZ038-NYZ072-221900- SOUTHERN NEW ENGLAND AND NY CITY SKY/WX TMP DP RH WIND PRES REMARKS BOSTON FAIR 52 24 33 SW12 30.14F WORCESTER CLOUDY 43 30 60 W8 30.14F NANTUCKET FAIR 49 30 48 W17G23 30.19F PROVIDENCE PTSUNNY 49 30 48 W8 30.18F HARTFORD PTSUNNY 48 31 51 S12 30.17F ALBANY CLOUDY 47 31 53 S7 30.15F NEW YORK CITY CLOUDY 52 32 46 SW12 30.20F $$ ANZ081-ANZ082-ANZ150-NHZ014-MEZ023>029-221900- COASTAL MARINE OBSERVATIONS STATION/POSITION TIME TEMP WIND PRES WAVE AIR SEA DIR/SP/G HT/PER (UTC) (F) (DEG/KT/KT) (MB) (FT/S) MOUNT DESERT ROC 1800 40 240/ 17/ 19 1019.0R MATINICUS ROCK 1700 43 280/ 14/ 16 1019.0F ISLE OF SHOALS 1700 44 300/ 12/ 15 1020.1S JEFFREYS LEDGE 1736 54 N/A 3/10 $$ .............KEY.............. WCI - WIND CHILL TC - TEMPERATURE IN CELSIUS VSB - VISIBILITY IN MILES HX - HEAT INDEX FAIR- INDICATES FEW OR NO CLOUDS BELOW 12,000 FT, WITH NO SIGNIFICANT WEATHER AND/OR OBSTRUCTIONS TO VISIBILITY.

USA.gov is the U.S. government's official web portal to all federal, state and local government web resources and services.